Year,Month,Day,Hour,Minute,Value (Times are PST for temperature in C)
2010,08,14,00,00,23.30
2010,08,14,00,01,23.30
2010,08,14,00,02,23.20
2010,08,14,00,03,23.20
2010,08,14,00,04,23.20
2010,08,14,00,05,23.10
2010,08,14,00,06,23.10
2010,08,14,00,07,23.10
2010,08,14,00,08,23.10
2010,08,14,00,09,23.00
2010,08,14,00,10,22.90
2010,08,14,00,11,22.90
2010,08,14,00,12,22.90
2010,08,14,00,13,22.90
2010,08,14,00,14,22.90
2010,08,14,00,15,22.90
2010,08,14,00,16,22.90
2010,08,14,00,17,22.90
2010,08,14,00,18,22.90
2010,08,14,00,19,22.80
2010,08,14,00,20,22.80
2010,08,14,00,21,22.80
2010,08,14,00,22,22.80
2010,08,14,00,23,22.80
2010,08,14,00,24,22.80
2010,08,14,00,25,22.70
2010,08,14,00,26,22.70
2010,08,14,00,27,22.70
2010,08,14,00,28,22.60
2010,08,14,00,29,22.60
2010,08,14,00,30,22.50
2010,08,14,00,31,22.50
2010,08,14,00,32,22.40
2010,08,14,00,33,22.40
2010,08,14,00,34,22.40
2010,08,14,00,35,22.40
2010,08,14,00,36,22.40
2010,08,14,00,37,22.40
2010,08,14,00,38,22.40
2010,08,14,00,39,22.40
2010,08,14,00,40,22.40
2010,08,14,00,41,22.40
2010,08,14,00,42,22.30
2010,08,14,00,43,22.30
2010,08,14,00,44,22.30
2010,08,14,00,45,22.30
2010,08,14,00,46,22.20
2010,08,14,00,47,22.20
2010,08,14,00,48,22.20
2010,08,14,00,49,22.20
2010,08,14,00,50,22.20
2010,08,14,00,51,22.20
2010,08,14,00,52,22.20
2010,08,14,00,53,22.20
2010,08,14,00,54,22.20
2010,08,14,00,55,22.20
2010,08,14,00,56,22.20
2010,08,14,00,57,22.10
2010,08,14,00,58,22.10
2010,08,14,00,59,22.00
2010,08,14,01,00,22.00
2010,08,14,01,01,21.90
2010,08,14,01,02,21.90
2010,08,14,01,03,21.90
2010,08,14,01,04,21.80
2010,08,14,01,05,21.80
2010,08,14,01,06,21.70
2010,08,14,01,07,21.70
2010,08,14,01,08,21.60
2010,08,14,01,09,21.60
2010,08,14,01,10,21.60
2010,08,14,01,11,21.60
2010,08,14,01,12,21.60
2010,08,14,01,13,21.60
2010,08,14,01,14,21.60
2010,08,14,01,15,21.60
2010,08,14,01,16,21.60
2010,08,14,01,17,21.60
2010,08,14,01,18,21.60
2010,08,14,01,19,21.70
2010,08,14,01,20,21.70
2010,08,14,01,21,21.70
2010,08,14,01,22,21.70
2010,08,14,01,23,21.70
2010,08,14,01,24,21.80
2010,08,14,01,25,21.80
2010,08,14,01,26,21.80
2010,08,14,01,27,21.90
2010,08,14,01,28,21.90
2010,08,14,01,29,21.90
2010,08,14,01,30,21.90
2010,08,14,01,31,21.90
2010,08,14,01,32,21.90
2010,08,14,01,33,21.90
2010,08,14,01,34,22.00
2010,08,14,01,35,22.00
2010,08,14,01,36,22.00
2010,08,14,01,37,22.00
2010,08,14,01,38,22.00
2010,08,14,01,39,22.00
2010,08,14,01,40,21.90
2010,08,14,01,41,21.90
2010,08,14,01,42,21.90
2010,08,14,01,43,21.90
2010,08,14,01,44,21.80
2010,08,14,01,45,21.80
2010,08,14,01,46,21.80
2010,08,14,01,47,21.80
2010,08,14,01,48,21.80
2010,08,14,01,49,21.70
2010,08,14,01,50,21.70
2010,08,14,01,51,21.70
2010,08,14,01,52,21.70
2010,08,14,01,53,21.70
2010,08,14,01,54,21.70
2010,08,14,01,55,21.70
2010,08,14,01,56,21.70
2010,08,14,01,57,21.60
2010,08,14,01,58,21.60
2010,08,14,01,59,21.60
2010,08,14,02,00,21.60
2010,08,14,02,01,21.60
2010,08,14,02,02,21.50
2010,08,14,02,03,21.40
2010,08,14,02,04,21.40
2010,08,14,02,05,21.30
2010,08,14,02,06,21.30
2010,08,14,02,07,21.30
2010,08,14,02,08,21.30
2010,08,14,02,09,21.30
2010,08,14,02,10,21.30
2010,08,14,02,11,21.30
2010,08,14,02,12,21.30
2010,08,14,02,13,21.30
2010,08,14,02,14,21.30
2010,08,14,02,15,21.30
2010,08,14,02,16,21.30
2010,08,14,02,17,21.30
2010,08,14,02,18,21.30
2010,08,14,02,19,21.30
2010,08,14,02,20,21.20
2010,08,14,02,21,21.10
2010,08,14,02,22,21.00
2010,08,14,02,23,20.90
2010,08,14,02,24,20.90
2010,08,14,02,25,20.80
2010,08,14,02,26,20.80
2010,08,14,02,27,20.70
2010,08,14,02,28,20.60
2010,08,14,02,29,20.60
2010,08,14,02,30,20.50
2010,08,14,02,31,20.40
2010,08,14,02,32,20.30
2010,08,14,02,33,20.20
2010,08,14,02,34,20.20
2010,08,14,02,35,20.10
2010,08,14,02,36,19.90
2010,08,14,02,37,19.90
2010,08,14,02,38,19.80
2010,08,14,02,39,19.70
2010,08,14,02,40,19.70
2010,08,14,02,41,19.60
2010,08,14,02,42,19.60
2010,08,14,02,43,19.50
2010,08,14,02,44,19.50
2010,08,14,02,45,19.40
2010,08,14,02,46,19.40
2010,08,14,02,47,19.40
2010,08,14,02,48,19.40
2010,08,14,02,49,19.40
2010,08,14,02,50,19.50
2010,08,14,02,51,19.60
2010,08,14,02,52,19.60
2010,08,14,02,53,19.60
2010,08,14,02,54,19.60
2010,08,14,02,55,19.60
2010,08,14,02,56,19.60
2010,08,14,02,57,19.60
2010,08,14,02,58,19.60
2010,08,14,02,59,19.60
2010,08,14,03,00,19.60
2010,08,14,03,01,19.60
2010,08,14,03,02,19.70
2010,08,14,03,03,19.70
2010,08,14,03,04,19.80
2010,08,14,03,05,19.80
2010,08,14,03,06,19.90
2010,08,14,03,07,19.90
2010,08,14,03,08,19.90
2010,08,14,03,09,19.90
2010,08,14,03,10,20.00
2010,08,14,03,11,20.10
2010,08,14,03,12,20.10
2010,08,14,03,13,20.10
2010,08,14,03,14,20.10
2010,08,14,03,15,20.10
2010,08,14,03,16,20.10
2010,08,14,03,17,20.20
2010,08,14,03,18,20.20
2010,08,14,03,19,20.20
2010,08,14,03,20,20.20
2010,08,14,03,21,20.20
2010,08,14,03,22,20.30
2010,08,14,03,23,20.30
2010,08,14,03,24,20.30
2010,08,14,03,25,20.30
2010,08,14,03,26,20.30
2010,08,14,03,27,20.30
2010,08,14,03,28,20.20
2010,08,14,03,29,20.20
2010,08,14,03,30,20.20
2010,08,14,03,31,20.20
2010,08,14,03,32,20.20
2010,08,14,03,33,20.20
2010,08,14,03,34,20.20
2010,08,14,03,35,20.20
2010,08,14,03,36,20.20
2010,08,14,03,37,20.10
2010,08,14,03,38,20.10
2010,08,14,03,39,20.10
2010,08,14,03,40,20.00
2010,08,14,03,41,19.90
2010,08,14,03,42,19.90
2010,08,14,03,43,19.90
2010,08,14,03,44,19.90
2010,08,14,03,45,19.90
2010,08,14,03,46,19.80
2010,08,14,03,47,19.80
2010,08,14,03,48,19.80
2010,08,14,03,49,19.70
2010,08,14,03,50,19.70
2010,08,14,03,51,19.70
2010,08,14,03,52,19.60
2010,08,14,03,53,19.60
2010,08,14,03,54,19.60
2010,08,14,03,55,19.50
2010,08,14,03,56,19.50
2010,08,14,03,57,19.50
2010,08,14,03,58,19.40
2010,08,14,03,59,19.50
2010,08,14,04,00,19.50
2010,08,14,04,01,19.50
2010,08,14,04,02,19.50
2010,08,14,04,03,19.60
2010,08,14,04,04,19.70
2010,08,14,04,05,19.70
2010,08,14,04,06,19.80
2010,08,14,04,07,19.80
2010,08,14,04,08,19.80
2010,08,14,04,09,19.80
2010,08,14,04,10,19.90
2010,08,14,04,11,19.90
2010,08,14,04,12,19.90
2010,08,14,04,13,19.90
2010,08,14,04,14,19.90
2010,08,14,04,15,19.90
2010,08,14,04,16,19.90
2010,08,14,04,17,19.90
2010,08,14,04,18,19.90
2010,08,14,04,19,19.90
2010,08,14,04,20,20.00
2010,08,14,04,21,20.10
2010,08,14,04,22,20.20
2010,08,14,04,23,20.20
2010,08,14,04,24,20.30
2010,08,14,04,25,20.40
2010,08,14,04,26,20.40
2010,08,14,04,27,20.50
2010,08,14,04,28,20.50
2010,08,14,04,29,20.50
2010,08,14,04,30,20.50
2010,08,14,04,31,20.40
2010,08,14,04,32,20.40
2010,08,14,04,33,20.40
2010,08,14,04,34,20.40
2010,08,14,04,35,20.40
2010,08,14,04,36,20.40
2010,08,14,04,37,20.40
2010,08,14,04,38,20.50
2010,08,14,04,39,20.50
2010,08,14,04,40,20.50
2010,08,14,04,41,20.50
2010,08,14,04,42,20.60
2010,08,14,04,43,20.60
2010,08,14,04,44,20.60
2010,08,14,04,45,20.60
2010,08,14,04,46,20.50
2010,08,14,04,47,20.50
2010,08,14,04,48,20.50
2010,08,14,04,49,20.50
2010,08,14,04,50,20.50
2010,08,14,04,51,20.50
2010,08,14,04,52,20.40
2010,08,14,04,53,20.40
2010,08,14,04,54,20.40
2010,08,14,04,55,20.40
2010,08,14,04,56,20.40
2010,08,14,04,57,20.40
2010,08,14,04,58,20.40
2010,08,14,04,59,20.50
2010,08,14,05,00,20.50
2010,08,14,05,01,20.50
2010,08,14,05,02,20.50
2010,08,14,05,03,20.50
2010,08,14,05,04,20.50
2010,08,14,05,05,20.60
2010,08,14,05,06,20.60
2010,08,14,05,07,20.60
2010,08,14,05,08,20.60
2010,08,14,05,09,20.60
2010,08,14,05,10,20.60
2010,08,14,05,11,20.60
2010,08,14,05,12,20.60
2010,08,14,05,13,20.60
2010,08,14,05,14,20.60
2010,08,14,05,15,20.50
2010,08,14,05,16,20.50
2010,08,14,05,17,20.50
2010,08,14,05,18,20.50
2010,08,14,05,19,20.50
2010,08,14,05,20,20.50
2010,08,14,05,21,20.50
2010,08,14,05,22,20.40
2010,08,14,05,23,20.40
2010,08,14,05,24,20.40
2010,08,14,05,25,20.30
2010,08,14,05,26,20.20
2010,08,14,05,27,20.20
2010,08,14,05,28,20.10
2010,08,14,05,29,20.00
2010,08,14,05,30,19.90
2010,08,14,05,31,19.90
2010,08,14,05,32,19.80
2010,08,14,05,33,19.70
2010,08,14,05,34,19.70
2010,08,14,05,35,19.70
2010,08,14,05,36,19.60
2010,08,14,05,37,19.60
2010,08,14,05,38,19.50
2010,08,14,05,39,19.50
2010,08,14,05,40,19.40
2010,08,14,05,41,19.40
2010,08,14,05,42,19.40
2010,08,14,05,43,19.40
2010,08,14,05,44,19.40
2010,08,14,05,45,19.40
2010,08,14,05,46,19.40
2010,08,14,05,47,19.40
2010,08,14,05,48,19.40
2010,08,14,05,49,19.40
2010,08,14,05,50,19.40
2010,08,14,05,51,19.40
2010,08,14,05,52,19.40
2010,08,14,05,53,19.30
2010,08,14,05,54,19.30
2010,08,14,05,55,19.30
2010,08,14,05,56,19.20
2010,08,14,05,57,19.20
2010,08,14,05,58,19.10
2010,08,14,05,59,19.10
2010,08,14,06,00,19.10
2010,08,14,06,01,19.10
2010,08,14,06,02,19.10
2010,08,14,06,03,19.10
2010,08,14,06,04,19.10
2010,08,14,06,05,19.20
2010,08,14,06,06,19.30
2010,08,14,06,07,19.30
2010,08,14,06,08,19.40
2010,08,14,06,09,19.40
2010,08,14,06,10,19.50
2010,08,14,06,11,19.60
2010,08,14,06,12,19.60
2010,08,14,06,13,19.70
2010,08,14,06,14,19.70
2010,08,14,06,15,19.80
2010,08,14,06,16,19.80
2010,08,14,06,17,19.90
2010,08,14,06,18,19.90
2010,08,14,06,19,19.90
2010,08,14,06,20,19.90
2010,08,14,06,21,19.90
2010,08,14,06,22,19.90
2010,08,14,06,23,19.90
2010,08,14,06,24,19.90
2010,08,14,06,25,19.90
2010,08,14,06,26,19.90
2010,08,14,06,27,20.10
2010,08,14,06,28,20.10
2010,08,14,06,29,20.20
2010,08,14,06,30,20.20
2010,08,14,06,31,20.20
2010,08,14,06,32,20.20
2010,08,14,06,33,20.20
2010,08,14,06,34,20.20
2010,08,14,06,35,20.20
2010,08,14,06,36,20.20
2010,08,14,06,37,20.10
2010,08,14,06,38,20.10
2010,08,14,06,39,20.00
2010,08,14,06,40,19.90
2010,08,14,06,41,19.90
2010,08,14,06,42,19.90
2010,08,14,06,43,19.90
2010,08,14,06,44,19.90
2010,08,14,06,45,19.90
2010,08,14,06,46,19.90
2010,08,14,06,47,19.90
2010,08,14,06,48,19.90
2010,08,14,06,49,19.90
2010,08,14,06,50,19.90
2010,08,14,06,51,20.00
2010,08,14,06,52,20.10
2010,08,14,06,53,20.10
2010,08,14,06,54,20.20
2010,08,14,06,55,20.20
2010,08,14,06,56,20.20
2010,08,14,06,57,20.10
2010,08,14,06,58,20.10
2010,08,14,06,59,20.00
2010,08,14,07,00,19.90
2010,08,14,07,01,19.90
2010,08,14,07,02,19.90
2010,08,14,07,03,19.90
2010,08,14,07,04,19.90
2010,08,14,07,05,19.90
2010,08,14,07,06,19.90
2010,08,14,07,07,19.90
2010,08,14,07,08,20.00
2010,08,14,07,09,20.10
2010,08,14,07,10,20.10
2010,08,14,07,11,20.10
2010,08,14,07,12,20.20
2010,08,14,07,13,20.20
2010,08,14,07,14,20.20
2010,08,14,07,15,20.20
2010,08,14,07,16,20.20
2010,08,14,07,17,20.30
2010,08,14,07,18,20.30
2010,08,14,07,19,20.40
2010,08,14,07,20,20.40
2010,08,14,07,21,20.50
2010,08,14,07,22,20.50
2010,08,14,07,23,20.60
2010,08,14,07,24,20.60
2010,08,14,07,25,20.70
2010,08,14,07,26,20.70
2010,08,14,07,27,20.80
2010,08,14,07,28,20.80
2010,08,14,07,29,20.90
2010,08,14,07,30,20.90
2010,08,14,07,31,21.00
2010,08,14,07,32,21.00
2010,08,14,07,33,21.10
2010,08,14,07,34,21.10
2010,08,14,07,35,21.20
2010,08,14,07,36,21.20
2010,08,14,07,37,21.30
2010,08,14,07,38,21.30
2010,08,14,07,39,21.30
2010,08,14,07,40,21.30
2010,08,14,07,41,21.30
2010,08,14,07,42,21.30
2010,08,14,07,43,21.30
2010,08,14,07,44,21.30
2010,08,14,07,45,21.20
2010,08,14,07,46,21.20
2010,08,14,07,47,21.20
2010,08,14,07,48,21.20
2010,08,14,07,49,21.20
2010,08,14,07,50,21.10
2010,08,14,07,51,21.10
2010,08,14,07,52,21.10
2010,08,14,07,53,21.10
2010,08,14,07,54,21.10
2010,08,14,07,55,21.10
2010,08,14,07,56,21.10
2010,08,14,07,57,21.10
2010,08,14,07,58,21.10
2010,08,14,07,59,21.10
2010,08,14,08,00,21.10
2010,08,14,08,01,21.10
2010,08,14,08,02,21.20
2010,08,14,08,03,21.20
2010,08,14,08,04,21.20
2010,08,14,08,05,21.20
2010,08,14,08,06,21.20
2010,08,14,08,07,21.20
2010,08,14,08,08,21.20
2010,08,14,08,09,21.20
2010,08,14,08,10,21.20
2010,08,14,08,11,21.20
2010,08,14,08,12,21.20
2010,08,14,08,13,21.20
2010,08,14,08,14,21.30
2010,08,14,08,15,21.30
2010,08,14,08,16,21.30
2010,08,14,08,17,21.30
2010,08,14,08,18,21.30
2010,08,14,08,19,21.30
2010,08,14,08,20,21.40
2010,08,14,08,21,21.50
2010,08,14,08,22,21.60
2010,08,14,08,23,21.60
2010,08,14,08,24,21.70
2010,08,14,08,25,21.80
2010,08,14,08,26,21.80
2010,08,14,08,27,21.90
2010,08,14,08,28,22.00
2010,08,14,08,29,22.00
2010,08,14,08,30,22.10
2010,08,14,08,31,22.10
2010,08,14,08,32,22.20
2010,08,14,08,33,22.20
2010,08,14,08,34,22.20
2010,08,14,08,35,22.20
2010,08,14,08,36,22.30
2010,08,14,08,37,22.30
2010,08,14,08,38,22.30
2010,08,14,08,39,22.30
2010,08,14,08,40,22.30
2010,08,14,08,41,22.40
2010,08,14,08,42,22.40
2010,08,14,08,43,22.40
2010,08,14,08,44,22.40
2010,08,14,08,45,22.50
2010,08,14,08,46,22.50
2010,08,14,08,47,22.50
2010,08,14,08,48,22.50
2010,08,14,08,49,22.50
2010,08,14,08,50,22.50
2010,08,14,08,51,22.50
2010,08,14,08,52,22.50
2010,08,14,08,53,22.50
2010,08,14,08,54,22.50
2010,08,14,08,55,22.50
2010,08,14,08,56,22.60
2010,08,14,08,57,22.60
2010,08,14,08,58,22.60
2010,08,14,08,59,22.60
2010,08,14,09,00,22.70
2010,08,14,09,01,22.70
2010,08,14,09,02,22.80
2010,08,14,09,03,22.90
2010,08,14,09,04,22.90
2010,08,14,09,05,22.90
2010,08,14,09,06,22.90
2010,08,14,09,07,23.00
2010,08,14,09,08,23.10
2010,08,14,09,09,23.10
2010,08,14,09,10,23.10
2010,08,14,09,11,23.10
2010,08,14,09,12,23.10
2010,08,14,09,13,23.10
2010,08,14,09,14,23.20
2010,08,14,09,15,23.20
2010,08,14,09,16,23.20
2010,08,14,09,17,23.20
2010,08,14,09,18,23.10
2010,08,14,09,19,23.10
2010,08,14,09,20,23.00
2010,08,14,09,21,22.90
2010,08,14,09,22,22.90
2010,08,14,09,23,22.90
2010,08,14,09,24,22.90
2010,08,14,09,25,22.90
2010,08,14,09,26,22.80
2010,08,14,09,27,22.80
2010,08,14,09,28,22.70
2010,08,14,09,29,22.70
2010,08,14,09,30,22.70
2010,08,14,09,31,22.70
2010,08,14,09,32,22.70
2010,08,14,09,33,22.70
2010,08,14,09,34,22.70
2010,08,14,09,35,22.70
2010,08,14,09,36,22.70
2010,08,14,09,37,22.70
2010,08,14,09,38,22.70
2010,08,14,09,39,22.70
2010,08,14,09,40,22.60
2010,08,14,09,41,22.60
2010,08,14,09,42,22.60
2010,08,14,09,43,22.60
2010,08,14,09,44,22.60
2010,08,14,09,45,22.60
2010,08,14,09,46,22.70
2010,08,14,09,47,22.70
2010,08,14,09,48,22.70
2010,08,14,09,49,22.70
2010,08,14,09,50,22.70
2010,08,14,09,51,22.80
2010,08,14,09,52,22.80
2010,08,14,09,53,22.90
2010,08,14,09,54,22.90
2010,08,14,09,55,23.00
2010,08,14,09,56,23.10
2010,08,14,09,57,23.10
2010,08,14,09,58,23.20
2010,08,14,09,59,23.20
2010,08,14,10,00,23.30
2010,08,14,10,01,23.30
2010,08,14,10,02,23.30
2010,08,14,10,03,23.30
2010,08,14,10,04,23.30
2010,08,14,10,05,23.40
2010,08,14,10,06,23.40
2010,08,14,10,07,23.40
2010,08,14,10,08,23.50
2010,08,14,10,09,23.60
2010,08,14,10,10,23.50
2010,08,14,10,11,23.40
2010,08,14,10,12,23.40
2010,08,14,10,13,23.40
2010,08,14,10,14,23.40
2010,08,14,10,15,23.40
2010,08,14,10,16,23.40
2010,08,14,10,17,23.50
2010,08,14,10,18,23.60
2010,08,14,10,19,23.60
2010,08,14,10,20,23.60
2010,08,14,10,21,23.60
2010,08,14,10,22,23.70
2010,08,14,10,23,23.70
2010,08,14,10,24,23.70
2010,08,14,10,25,23.70
2010,08,14,10,26,23.70
2010,08,14,10,27,23.70
2010,08,14,10,28,23.70
2010,08,14,10,29,23.70
2010,08,14,10,30,23.70
2010,08,14,10,31,23.70
2010,08,14,10,32,23.80
2010,08,14,10,33,23.80
2010,08,14,10,34,23.80
2010,08,14,10,35,23.70
2010,08,14,10,36,23.80
2010,08,14,10,37,23.80
2010,08,14,10,38,23.80
2010,08,14,10,39,23.80
2010,08,14,10,40,23.80
2010,08,14,10,41,23.80
2010,08,14,10,42,23.80
2010,08,14,10,43,23.90
2010,08,14,10,44,23.90
2010,08,14,10,45,23.90
2010,08,14,10,46,23.90
2010,08,14,10,47,24.00
2010,08,14,10,48,24.10
2010,08,14,10,49,24.10
2010,08,14,10,50,24.10
2010,08,14,10,51,24.10
2010,08,14,10,52,24.20
2010,08,14,10,53,24.20
2010,08,14,10,54,24.30
2010,08,14,10,55,24.40
2010,08,14,10,56,24.50
2010,08,14,10,57,24.50
2010,08,14,10,58,24.60
2010,08,14,10,59,24.60
2010,08,14,11,00,24.50
2010,08,14,11,01,24.50
2010,08,14,11,02,24.60
2010,08,14,11,03,24.60
2010,08,14,11,04,24.70
2010,08,14,11,05,24.80
2010,08,14,11,06,24.80
2010,08,14,11,07,24.90
2010,08,14,11,08,25.00
2010,08,14,11,09,25.10
2010,08,14,11,10,25.10
2010,08,14,11,11,25.20
2010,08,14,11,12,25.20
2010,08,14,11,13,25.20
2010,08,14,11,14,25.10
2010,08,14,11,15,25.20
2010,08,14,11,16,25.20
2010,08,14,11,17,25.30
2010,08,14,11,18,25.40
2010,08,14,11,19,25.40
2010,08,14,11,20,25.50
2010,08,14,11,21,25.60
2010,08,14,11,22,25.60
2010,08,14,11,23,25.60
2010,08,14,11,24,25.40
2010,08,14,11,25,25.40
2010,08,14,11,26,25.40
2010,08,14,11,27,25.40
2010,08,14,11,28,25.40
2010,08,14,11,29,25.50
2010,08,14,11,30,25.50
2010,08,14,11,31,25.60
2010,08,14,11,32,25.80
2010,08,14,11,33,25.90
2010,08,14,11,34,25.90
2010,08,14,11,35,25.90
2010,08,14,11,36,25.90
2010,08,14,11,37,26.00
2010,08,14,11,38,26.00
2010,08,14,11,39,26.00
2010,08,14,11,40,26.00
2010,08,14,11,41,26.00
2010,08,14,11,42,26.00
2010,08,14,11,43,26.00
2010,08,14,11,44,25.90
2010,08,14,11,45,25.90
2010,08,14,11,46,26.00
2010,08,14,11,47,26.00
2010,08,14,11,48,26.10
2010,08,14,11,49,26.10
2010,08,14,11,50,26.10
2010,08,14,11,51,26.20
2010,08,14,11,52,26.30
2010,08,14,11,53,26.30
2010,08,14,11,54,26.40
2010,08,14,11,55,26.50
2010,08,14,11,56,26.60
2010,08,14,11,57,26.70
2010,08,14,11,58,26.80
2010,08,14,11,59,26.80
2010,08,14,12,00,26.70
2010,08,14,12,01,26.70
2010,08,14,12,02,26.70
2010,08,14,12,03,26.70
2010,08,14,12,04,26.70
2010,08,14,12,05,26.60
2010,08,14,12,06,26.60
2010,08,14,12,07,26.50
2010,08,14,12,08,26.40
2010,08,14,12,09,26.30
2010,08,14,12,10,26.20
2010,08,14,12,11,26.20
2010,08,14,12,12,26.20
2010,08,14,12,13,26.30
2010,08,14,12,14,26.30
2010,08,14,12,15,26.40
2010,08,14,12,16,26.50
2010,08,14,12,17,26.60
2010,08,14,12,18,26.60
2010,08,14,12,19,26.60
2010,08,14,12,20,26.60
2010,08,14,12,21,26.60
2010,08,14,12,22,26.60
2010,08,14,12,23,26.60
2010,08,14,12,24,26.50
2010,08,14,12,25,26.40
2010,08,14,12,26,26.40
2010,08,14,12,27,26.50
2010,08,14,12,28,26.40
2010,08,14,12,29,26.40
2010,08,14,12,30,26.40
2010,08,14,12,31,26.30
2010,08,14,12,32,26.30
2010,08,14,12,33,26.50
2010,08,14,12,34,26.60
2010,08,14,12,35,26.60
2010,08,14,12,36,26.60
2010,08,14,12,37,26.60
2010,08,14,12,38,26.60
2010,08,14,12,39,26.70
2010,08,14,12,40,26.80
2010,08,14,12,41,26.80
2010,08,14,12,42,26.80
2010,08,14,12,43,26.80
2010,08,14,12,44,26.90
2010,08,14,12,45,26.90
2010,08,14,12,46,26.90
2010,08,14,12,47,26.90
2010,08,14,12,48,26.90
2010,08,14,12,49,27.00
2010,08,14,12,50,27.10
2010,08,14,12,51,27.20
2010,08,14,12,52,27.20
2010,08,14,12,53,27.20
2010,08,14,12,54,27.20
2010,08,14,12,55,27.30
2010,08,14,12,56,27.30
2010,08,14,12,57,27.30
2010,08,14,12,58,27.40
2010,08,14,12,59,27.50
2010,08,14,13,00,27.60
2010,08,14,13,01,27.60
2010,08,14,13,02,27.60
2010,08,14,13,03,27.60
2010,08,14,13,04,27.50
2010,08,14,13,05,27.40
2010,08,14,13,06,27.30
2010,08,14,13,07,27.30
2010,08,14,13,08,27.30
2010,08,14,13,09,27.30
2010,08,14,13,10,27.30
2010,08,14,13,11,27.30
2010,08,14,13,12,27.30
2010,08,14,13,13,27.30
2010,08,14,13,14,27.40
2010,08,14,13,15,27.40
2010,08,14,13,16,27.40
2010,08,14,13,17,27.30
2010,08,14,13,18,27.30
2010,08,14,13,19,27.30
2010,08,14,13,20,27.30
2010,08,14,13,21,27.30
2010,08,14,13,22,27.30
2010,08,14,13,23,27.30
2010,08,14,13,24,27.30
2010,08,14,13,25,27.30
2010,08,14,13,26,27.30
2010,08,14,13,27,27.30
2010,08,14,13,28,27.30
2010,08,14,13,29,27.30
2010,08,14,13,30,27.30
2010,08,14,13,31,27.30
2010,08,14,13,32,27.30
2010,08,14,13,33,27.40
2010,08,14,13,34,27.40
2010,08,14,13,35,27.40
2010,08,14,13,36,27.40
2010,08,14,13,37,27.40
2010,08,14,13,38,27.40
2010,08,14,13,39,27.40
2010,08,14,13,40,27.40
2010,08,14,13,41,27.50
2010,08,14,13,42,27.60
2010,08,14,13,43,27.70
2010,08,14,13,44,27.70
2010,08,14,13,45,27.70
2010,08,14,13,46,27.60
2010,08,14,13,47,27.60
2010,08,14,13,48,27.60
2010,08,14,13,49,27.60
2010,08,14,13,50,27.60
2010,08,14,13,51,27.60
2010,08,14,13,52,27.60
2010,08,14,13,53,27.60
2010,08,14,13,54,27.60
2010,08,14,13,55,27.60
2010,08,14,13,56,27.60
2010,08,14,13,57,27.60
2010,08,14,13,58,27.60
2010,08,14,13,59,27.60
2010,08,14,14,00,27.40
2010,08,14,14,01,27.40
2010,08,14,14,02,27.50
2010,08,14,14,03,27.50
2010,08,14,14,04,27.40
2010,08,14,14,05,27.50
2010,08,14,14,06,27.60
2010,08,14,14,07,27.60
2010,08,14,14,08,27.60
2010,08,14,14,09,27.60
2010,08,14,14,10,27.60
2010,08,14,14,11,27.60
2010,08,14,14,12,27.70
2010,08,14,14,13,27.70
2010,08,14,14,14,27.60
2010,08,14,14,15,27.60
2010,08,14,14,16,27.70
2010,08,14,14,17,27.70
2010,08,14,14,18,27.70
2010,08,14,14,19,27.70
2010,08,14,14,20,27.70
2010,08,14,14,21,27.80
2010,08,14,14,22,27.90
2010,08,14,14,23,27.90
2010,08,14,14,24,27.90
2010,08,14,14,25,28.00
2010,08,14,14,26,28.10
2010,08,14,14,27,28.20
2010,08,14,14,28,28.20
2010,08,14,14,29,28.20
2010,08,14,14,30,28.20
2010,08,14,14,31,28.20
2010,08,14,14,32,28.20
2010,08,14,14,33,28.20
2010,08,14,14,34,28.20
2010,08,14,14,35,28.20
2010,08,14,14,36,28.20
2010,08,14,14,37,28.20
2010,08,14,14,38,28.30
2010,08,14,14,39,28.30
2010,08,14,14,40,28.20
2010,08,14,14,41,28.20
2010,08,14,14,42,28.10
2010,08,14,14,43,28.20
2010,08,14,14,44,28.20
2010,08,14,14,45,28.30
2010,08,14,14,46,28.40
2010,08,14,14,47,28.50
2010,08,14,14,48,28.60
2010,08,14,14,49,28.60
2010,08,14,14,50,28.60
2010,08,14,14,51,28.50
2010,08,14,14,52,28.40
2010,08,14,14,53,28.40
2010,08,14,14,54,28.30
2010,08,14,14,55,28.30
2010,08,14,14,56,28.20
2010,08,14,14,57,28.20
2010,08,14,14,58,28.20
2010,08,14,14,59,28.10
2010,08,14,15,00,28.10
2010,08,14,15,01,28.20
2010,08,14,15,02,28.20
2010,08,14,15,03,28.20
2010,08,14,15,04,28.20
2010,08,14,15,05,28.20
2010,08,14,15,06,28.20
2010,08,14,15,07,28.20
2010,08,14,15,08,28.20
2010,08,14,15,09,28.10
2010,08,14,15,10,28.10
2010,08,14,15,11,28.20
2010,08,14,15,12,28.20
2010,08,14,15,13,28.20
2010,08,14,15,14,28.30
2010,08,14,15,15,28.30
2010,08,14,15,16,28.30
2010,08,14,15,17,28.30
2010,08,14,15,18,28.40
2010,08,14,15,19,28.50
2010,08,14,15,20,28.70
2010,08,14,15,21,28.80
2010,08,14,15,22,28.80
2010,08,14,15,23,28.90
2010,08,14,15,24,28.90
2010,08,14,15,25,28.90
2010,08,14,15,26,28.80
2010,08,14,15,27,28.70
2010,08,14,15,28,28.60
2010,08,14,15,29,28.60
2010,08,14,15,30,28.60
2010,08,14,15,31,28.60
2010,08,14,15,32,28.50
2010,08,14,15,33,28.40
2010,08,14,15,34,28.40
2010,08,14,15,35,28.40
2010,08,14,15,36,28.50
2010,08,14,15,37,28.60
2010,08,14,15,38,28.60
2010,08,14,15,39,28.60
2010,08,14,15,40,28.70
2010,08,14,15,41,28.70
2010,08,14,15,42,28.80
2010,08,14,15,43,28.80
2010,08,14,15,44,28.80
2010,08,14,15,45,28.80
2010,08,14,15,46,28.80
2010,08,14,15,47,28.80
2010,08,14,15,48,28.80
2010,08,14,15,49,28.80
2010,08,14,15,50,28.80
2010,08,14,15,51,28.90
2010,08,14,15,52,28.90
2010,08,14,15,53,28.90
2010,08,14,15,54,28.90
2010,08,14,15,55,28.90
2010,08,14,15,56,28.90
2010,08,14,15,57,29.10
2010,08,14,15,58,29.10
2010,08,14,15,59,29.10
2010,08,14,16,00,29.10
2010,08,14,16,01,29.10
2010,08,14,16,02,29.20
2010,08,14,16,03,29.20
2010,08,14,16,04,29.20
2010,08,14,16,05,29.20
2010,08,14,16,06,29.20
2010,08,14,16,07,29.20
2010,08,14,16,08,29.20
2010,08,14,16,09,29.20
2010,08,14,16,10,29.20
2010,08,14,16,11,29.30
2010,08,14,16,12,29.30
2010,08,14,16,13,29.30
2010,08,14,16,14,29.30
2010,08,14,16,15,29.30
2010,08,14,16,16,29.30
2010,08,14,16,17,29.30
2010,08,14,16,18,29.30
2010,08,14,16,19,29.30
2010,08,14,16,20,29.40
2010,08,14,16,21,29.40
2010,08,14,16,22,29.40
2010,08,14,16,23,29.40
2010,08,14,16,24,29.40
2010,08,14,16,25,29.50
2010,08,14,16,26,29.50
2010,08,14,16,27,29.50
2010,08,14,16,28,29.50
2010,08,14,16,29,29.60
2010,08,14,16,30,29.60
2010,08,14,16,31,29.60
2010,08,14,16,32,29.70
2010,08,14,16,33,29.70
2010,08,14,16,34,29.70
2010,08,14,16,35,29.70
2010,08,14,16,36,29.80
2010,08,14,16,37,29.80
2010,08,14,16,38,29.80
2010,08,14,16,39,29.80
2010,08,14,16,40,29.80
2010,08,14,16,41,29.70
2010,08,14,16,42,29.70
2010,08,14,16,43,29.70
2010,08,14,16,44,29.70
2010,08,14,16,45,29.70
2010,08,14,16,46,29.70
2010,08,14,16,47,29.70
2010,08,14,16,48,29.70
2010,08,14,16,49,29.70
2010,08,14,16,50,29.70
2010,08,14,16,51,29.70
2010,08,14,16,52,29.70
2010,08,14,16,53,29.70
2010,08,14,16,54,29.70
2010,08,14,16,55,29.80
2010,08,14,16,56,29.80
2010,08,14,16,57,29.90
2010,08,14,16,58,30.00
2010,08,14,16,59,30.10
2010,08,14,17,00,30.10
2010,08,14,17,01,30.10
2010,08,14,17,02,30.10
2010,08,14,17,03,30.10
2010,08,14,17,04,30.10
2010,08,14,17,05,30.10
2010,08,14,17,06,30.10
2010,08,14,17,07,30.10
2010,08,14,17,08,30.00
2010,08,14,17,09,29.90
2010,08,14,17,10,29.90
2010,08,14,17,11,29.90
2010,08,14,17,12,29.90
2010,08,14,17,13,29.90
2010,08,14,17,14,29.90
2010,08,14,17,15,29.90
2010,08,14,17,16,29.90
2010,08,14,17,17,29.90
2010,08,14,17,18,29.90
2010,08,14,17,19,29.90